www.pogodaiklimat.ru

Погода и климат >> Архив погоды >> Россия >> Мурманская область >> Териберка


АРХИВ ПОГОДЫ в Териберке

Время (UTC), дата Ветер
(напр.,м/с)
 
Видим.   Явления Облачность Т
(С)
Тd
(С)
f
(%)
Тe
(С)
Тes
(С)
Комфортность P
(гПа)
Po
(гПа)
Тmin
(С)
Tmax
(С)
R
(мм)
R24
(мм)
S
(см)
12 11.06 С 10-12
{15}
20 км в посл. час ливневой дождь 10/10 400 м
[Cb cap]
+2.9 +0.3 83 -4 -4 1023.5 1019.7
18 11.06 СЗ 11-15
{15}
20 км в посл. час ливневой дождь 9/8 400 м
[Cb cap Ac trans]
+2.9 +0.6 85 -5 -5 1025.9 1022.1 +3.4 2
00 12.06 СЗ 11-13
{14}
20 км {ливн. осадки} 10/10 400 м
[Cb cap]
+3.3 +1.0 85 -4 -4 1026.2 1022.4
06 12.06 СЗ 10-12
{15}
20 км слаб. ливневой дождь 10/10 600 м
[Cb cap]
+4.1 +1.6 84 -3 -3 1027.1 1023.3 +2.3 0.1
12 12.06 СЗ 10-13
{15}
20 км {ливн. осадки} 8/4 600 м
[Cb cap Ac trans]
+5.4 +2.8 83 -1 -1 1029.3 1025.5
18 12.06 СЗ 7-8
{10}
20 км 8/4 600 м
[Cu Sc Ac trans Ci fib]
+4.7 +2.3 84 -1 -1 1029.5 1025.7 +5.6 0.0
00 13.06 З 7 20 км 9/8 300 м
[Cb cap Ac trans Ci sp]
+4.2 +1.7 84 -2 -2 1029.1 1025.3
06 13.06 СЗ 7-8
{10}
20 км {ливн. осадки} 9/9 600 м
[Cb cap]
+5.1 +1.5 78 -0 -0 1028.7 1024.9 +4.1 0.0
12 13.06 СЗ 2 20 км 6/1 800 м
[Sc Ac trans]
+5.7 +1.9 77 +3 +9 1027.2 1023.4
18 13.06 С 2 20 км {ливн. осадки} 8/8 600 м
[Cb cap Ac trans]
+5.3 +2.7 83 +3 +3 1024.2 1020.4 +6.2 0.0
00 14.06 С 6 20 км 8/8 600 м
[Cb cap Ac trans]
+4.3 +2.8 90 -1 -1 1022.3 1018.5
06 14.06 СЗ 8-9
{10}
20 км 10/10 400 м
[Cb cap]
+4.7 +2.1 83 -1 -1 1019.6 1015.8 +4.2
12 14.06 З 7-8
{11}
20 км 10/10 600 м
[Cb cap]
+5.6 +2.6 81 0 0 1018.1 1014.4
18 14.06 СЗ 10-11
{15}
20 км в посл. час ливневой дождь 8/6 600 м
[Cb cap Ac trans]
+4.6 +3.7 94 -2 -2 1016.9 1013.1 +5.9 0.0
00 15.06 СЗ 10-12
{13}
20 км 10/10 400 м
[Cb cap]
+4.6 +3.5 93 -2 -2 1016.9 1013.1
06 15.06 СЗ 10-12
{13}
4000 м слаб. ливневой дождь 10/10 240 м
[Cb cap]
+4.2 +3.8 97 -3 -3 1016.8 1013.0 +4.1 0.3
12 15.06 СЗ 4-6
{12}
20 км {ливн. осадки} 8/6 600 м
[Cu Sc Ac trans Cc]
+5.9 +4.3 89 +2 +4 1015.1 1011.4
18 15.06 ЮЗ 2 20 км 8/4 1000 м
[Sc Ac lent Ci sp]
+8.7 +5.0 78 +7 +7 1009.3 1005.6 +9.1 0.1
00 16.06 СЗ 12-15
{15}
20 км 9/9 300 м
[Cb cap]
+5.5 +4.0 90 -1 -1 1008.5 1004.8
06 16.06 СЗ 11-14
{15}
20 км {ливн. осадки} 9/8 480 м
[Cb cap Ac As]
+5.6 +3.9 89 -1 -1 1009.3 1005.6 +5.0 0.0
12 16.06 З 8-10
{14}
20 км 10/10 400 м
[Cb cap]
+5.6 +4.1 90 -0 -0 1010.5 1006.8
18 16.06 СЗ 8-10
{15}
20 км 9/8 400 м
[Cb cap Ac As]
+5.4 +3.7 89 -0 -0 1010.4 1006.7 +6.1
00 17.06 СЗ 11-13
{17}
20 км {ливн. осадки} 9/8 400 м
[Cb cap Ac As]
+4.9 +3.1 88 -2 -2 1009.5 1005.8
06 17.06 СЗ 12-15
{17}
20 км слаб. ливневой дождь 10/10 400 м
[Cb cap]
+4.4 +3.4 93 -3 -3 1009.0 1005.3 +4.0 0.3
12 17.06 СЗ 8-9
{11}
20 км в посл. час ливневой дождь 9/8 300 м
[Cb cap Ac trans]
+5.4 +3.0 85 -0 -0 1009.6 1005.9
18 17.06 СЗ 9-11
{11}
20 км 8/6 600 м
[Cb cap Ac trans Ci sp]
+5.3 +2.7 83 -1 -1 1009.6 1005.9 +6.4 0.0
00 18.06 СЗ 8-11
{11}
20 км слаб. ливневой дождь 9/9 600 м
[Cb cap]
+3.8 +1.8 87 -3 -3 1009.9 1006.2
06 18.06 СЗ 7-10
{10}
20 км слаб. ливневой дождь 9/8 400 м
[Cb cap Ci ing]
+4.7 +2.4 85 -1 -1 1010.5 1006.8 +3.6 0.3

 

Местоположение метеостанции Териберка (Мурманская область, Россия): широта 69.20 долгота 35.12 высота над уровнем моря 30 м.

В архиве по умолчанию представлена погода в Териберке за последнюю неделю. Архивные данные за месяц целиком и за предыдущие месяцы, начиная с января 2011 года, Вы можете получить, выбрав интересующий диапазон дат из раскрывающегося списка и нажав кнопку "Ввод!".


*Определитесь, кто Вы:
робот инопланетянин человек

Внимание! Время в таблицах - всемирное. Для получения местного времени необходимо прибавить поправку, которая равна 3 ч.

Смотрите также архив погоды в соседних городах и на ближайших метеорологических станциях:

Погода в Дальних Зеленцах (Мурманская область, Россия) (39 км)
Погода в Туманной (Мурманская область, Россия) (41 км)
Погода в Полярном (Мурманская область, Россия) (65 км)
Погода в Североморске (Мурманская область, Россия) (67 км)
Погода в Мурманске (Мурманская область, Россия) (86 км)
Погода в Ура-Губе (Мурманская область, Россия) (92 км)
Погода в Цып-Наволоке (Мурманская область, Россия) (98 км)
Погода в Мурманске аэропорт (Мурманская область, Россия) (114 км)
Погода в Пулозере (Мурманская область, Россия) (120 км)
Погода в Ловозере (Мурманская область, Россия) (134 км)

Пояснения к столбцам:

Ветер - указаны скорость ветра в м/с - средняя за 10 мин, порывы в срок и между сроками (в фигурных скобках) и направление, откуда дует ветер: С - северный, СВ - северо-восточный, В - восточный, ЮВ - юго-восточный, Ю - южный, ЮЗ - юго-западный, З - западный, СЗ - северо-западный.
Видимость - горизонтальная дальность видимости в метрах или километрах. При видимости от 1 до 10 км при отсутствии осадков обычно наблюдается дымка, при ухудшении видимости до 1 км и менее - туман. В сухую погоду видимость может ухудшаться дымом, пылью или мглою.
Явления - указаны атмосферные явления, наблюдавшиеся в срок или в последний час перед сроком; фигурными скобками обозначены явления, наблюдавшиеся между сроками (за 1-3 часа до срока); квадратными скобками обозначены град или гололедные отложения с указанием их диаметра в мм.
Облачность - указаны через наклонную черту общая и нижняя облачность в баллах и высота нижней границы облаков в метрах; квадратными скобками обозначены формы облаков: Ci - перистые, Cs - перисто-слоистые, Cc - перисто-кучевые, Ac - высококучевые, As - высокослоистые, Sc - слоисто-кучевые, Ns - слоисто-дождевые, Cu - кучевые, Cb - кучево-дождевые. Подробнее классификацию облаков см. в Атласе облаков (PDF).
T - Температура воздуха - температура, измеренная на высоте 2 м над землей.
Td - Температура точки росы - температура, при понижении до которой содержащийся в воздухе водяной пар достигнет насыщения.
f - Относительная влажность воздуха - влажноcть воздуха, измеренная на высоте 2 м над землей.
Te - Эффективная температура - температура, которую ощущает одетый по сезону человек в тени. Характеристика душности погоды. При расчете учитывается влияние влажности воздуха и скорости ветра на теплоощущения человека.
Tes - Эффективная температура на солнце - температура, которую ощущает человек, с поправкой на солнечный нагрев. Характеристика знойности погоды. Зависит от высоты солнца над горизонтом, облачности и скорости ветра. Ночью, в пасмурную погоду, а также при ветре 12 м/с и более поправка равна нулю.
P - Атмосферное давление - приведенное к уровню моря атмосферное давление.
Po - Атмосферное давление - измеренное на уровне метеостанции атмосферное давление.
Tmin - Минимальная температура - минимум температуры воздуха на высоте 2 м над землей.
Tmax - Максимальная температура - максимум температуры воздуха на высоте 2 м над землей.
R - Количество осадков - Количество выпавших осадков за период времени, мм. При наведении курсора мыши на число - период времени, за который выпало указанное количество осадков.
R24 - Количество осадков - Количество выпавших осадков за 24 часа, мм.
S - Снежный покров - Высота снежного покрова, см. При наведении курсора мыши на число - состояние снежного покрова и степень покрытия местности в баллах.